Погода в Карякино

Россия / Республика Башкортостан     56°09′23″N   54°17′48″E
темп.,
°C
ветер,
м/с
пор.,
м/с
влажн.,
%
обл.,
%
осадки,
мм/ч
давл.,
гПа
погр.,
м
2 августа, пн
пн223:00+20з226694 0.0 101248
02:00+18з2273100 0.0 101313
05:00+17ююз227515 0.0 101316
08:00+20зюз2570100 0.0 1014208
11:00+25з355082 0.0 1014955
14:00+28зюз354097 0.0 10141749
17:00+29з3537100 0.0 10131753
20:00+25ююз2255100 0.0 101239
3 августа, вт
вт323:00+21зюз11614 0.0 101311
02:00+20ю2263100 0.0 101217
05:00+19юз116550 0.0 101311
08:00+22ю12595 0.0 101388
11:00+29ююз23386 0.0 1012580
14:00+33зюз24295 0.0 10111987
17:00+34з162752 0.0 10102762
20:00+29вюв24497 0.0 100961
4 августа, ср
ср423:00+23ююв115870 0.0 101016
02:00+22зюз11626 0.0 101011
05:00+20ююв22635 0.0 101016
08:00+23с01593 0.0 101081
11:00+29з234296 0.0 1010727
14:00+31сз233999 0.0 10101183
17:00+32зсз1336100 0.0 10091610
20:00+28з1253100 0.0 100917
5 августа, чт
чт523:00+21ссз498897 0.0 1010283
02:00+18с269889 2.3 1011230
05:00+17сз2598100 3.4 1012230
08:00+18ссз2592100 0.2 1013267
11:00+19с369094 0.3 1013403
14:00+25с35490 0.1 10131542
17:00+26с444597 0.1 10131929
20:00+22ссз266149 0.0 1013203
6 августа, пт
пт623:00+17с2672100 0.0 1014114
02:00+15ссв26825 0.0 1014120
05:00+14с24899 0.0 101579
08:00+17с24725 0.0 1016216
11:00+22ссв34477 0.0 10161208
14:00+24с563298 0.0 10152358
17:00+23с5635100 0.0 10152263
20:00+19с375288 0.0 1016291